This is the latest recevied weather packets stored in our database for station/object N2KI-13. If no packets are shown the sender has not sent any weather packets the latest 10 day(s).
| Time | Temp. | Humidity | Pressure | Rain* | Wind** | Luminosity | Snow |
|---|---|---|---|---|---|---|---|
| 1777580104 | 14.44° C | 66% | 1006.1 hPa | 0 mm | - | - | - |
| 1777579804 | 15° C | 67% | 1006.1 hPa | 0 mm | - | - | - |
| 1777579504 | 15° C | 68% | 1006.1 hPa | 0 mm | - | - | - |
| 1777578004 | 15° C | 67% | 1006 hPa | 0 mm | - | - | - |
| 1777577103 | 15° C | 69% | 1005.9 hPa | 0 mm | - | - | - |
| 1777575604 | 15° C | 69% | 1006 hPa | 0 mm | - | - | - |
| 1777573204 | 14.44° C | 78% | 1006 hPa | 0 mm | - | - | - |
| 1777572304 | 13.89° C | 80% | 1006.2 hPa | 0 mm | - | - | - |
| 1777571704 | 13.89° C | 79% | 1006.1 hPa | 0 mm | - | - | - |
| 1777571403 | 13.33° C | 79% | 1006.1 hPa | 0 mm | - | - | - |
| 1777567804 | 14.44° C | 77% | 1006.1 hPa | 0 mm | - | - | - |
| 1777566605 | 13.89° C | 79% | 1006.4 hPa | 0 mm | - | - | - |
| 1777565704 | 13.33° C | 82% | 1006.7 hPa | 0 mm | - | - | - |
| 1777565404 | 13.33° C | 83% | 1006.7 hPa | 0 mm | - | - | - |
| 1777561504 | 10.56° C | 91% | 1006.9 hPa | 0 mm | - | - | - |
| 1777560904 | 10.56° C | 91% | 1006.9 hPa | 0 mm | - | - | - |
| 1777560304 | 10.56° C | 91% | 1007.1 hPa | 0 mm | - | - | - |
| 1777556704 | 9.44° C | 91% | 1006.8 hPa | 0.51 mm | - | - | - |
| 1777555805 | 9.44° C | 91% | 1006.7 hPa | 1.02 mm | - | - | - |
| 1777550404 | 8.89° C | 91% | 1007.4 hPa | 0 mm | - | - | - |
| 1777549504 | 8.89° C | 91% | 1007.4 hPa | 0 mm | - | - | - |
| 1777548004 | 8.89° C | 91% | 1007.3 hPa | 0 mm | - | - | - |
| 1777546803 | 8.89° C | 91% | 1007.2 hPa | 0 mm | - | - | - |
| 1777545904 | 8.89° C | 91% | 1007.1 hPa | 0 mm | - | - | - |
| 1777540504 | 8.89° C | 91% | 1006.7 hPa | 0 mm | - | - | - |
* Rain latest hour (hover to see other rain measurements)
** Current wind speed in m/s (hover to see current wind gust speed)